{"data":{"norad_id":64847,"epoch":"2026-05-25T03:40:12.523008Z","epoch_age_seconds":61699,"freshness":"FRESH","line1":"1 64847U 25152F   26145.15292272  .00004256  00000+0  29876-3 0  9993","line2":"2 64847  97.4506   0.5044 0001153 119.7851 240.3491 15.05659969 46926","mean_motion":15.05659969,"eccentricity":0.0001153,"inclination_deg":97.4506,"raan_deg":0.5044,"arg_perigee_deg":119.7851,"mean_anomaly_deg":240.3491,"bstar":0.00029876,"rev_number":4692,"period_min":95.639123683177,"perigee_km":548.68182098224,"apogee_km":550.2793295951,"semimajor_km":6927.6175752887,"source":"CELESTRAK","updated_at":"2026-05-25T13:38:20.612290Z"}}